{"data":{"norad_id":64163,"intl_designator":"2025-112T","name":"STARLINK-34340","alt_names":[],"object_type":"PAYLOAD","status":"ACTIVE","operator":null,"country":"US","launch_date":"2025-05-27","launch_site_code":"AFWTR","launch_vehicle":null,"mission":null,"orbit_class":"UNKNOWN","rcs_meters":null,"size_class":null,"mass_kg":null,"dimensions":null,"purposes":["comms"],"wikipedia_slug":null,"has_3d_model":false,"image_url":null,"decayed_at":null,"tle_current":{"epoch":"2026-05-25T02:26:12.269760Z","epoch_age_seconds":66601,"freshness":"FRESH","line1":"1 64163U 25112T   26145.10153090 -.00000938  00000+0 -60967-4 0  9991","line2":"2 64163  97.4498 196.4407 0000902 103.9729 256.1598 15.05645052 54802","mean_motion":15.05645052,"eccentricity":9.02e-5,"inclination_deg":97.4498,"raan_deg":196.4407,"arg_perigee_deg":103.9729,"mean_anomaly_deg":256.1598,"bstar":-6.0967e-5,"rev_number":5480,"period_min":95.640071216466,"perigee_km":548.90145634761,"apogee_km":550.15120681263,"semimajor_km":6927.6633315801,"source":"CELESTRAK","updated_at":"2026-05-25T13:38:20.306508Z"}}}